"Sample Date","Sample Time","Sample Value","Units","Flow Rate","Number Channels","Micron Size 0","Counts/Channel 0","Micron Size 1","Counts/Channel 1","Micron Size 2","Counts/Channel 2","Micron Size 3","Counts/Channel 3","Micron Size 4","Counts/Channel 4","Micron Size 5","Counts/Channel 5","Micron Size 6","Counts/Channel 6","Micron Size 7","Counts/Channel 7","Micron Size 8","Counts/Channel 8","Micron Size 9","Counts/Channel 9","Micron Size 10","Counts/Channel 10","Micron Size 11","Counts/Channel 11","Micron Size 12","Counts/Channel 12","Micron Size 13","Counts/Channel 13","Micron Size 14","Counts/Channel 14","Micron Size 15","Counts/Channel 15","Micron Size 16","Counts/Channel 16","Micron Size 17","Counts/Channel 17","Micron Size 18","Counts/Channel 18","Micron Size 19","Counts/Channel 19","Micron Size 20","Counts/Channel 20","Micron Size 21","Counts/Channel 21","Micron Size 22","Counts/Channel 22","Micron Size 23","Counts/Channel 23","Micron Size 24","Counts/Channel 24","Micron Size 25","Counts/Channel 25","Micron Size 26","Counts/Channel 26","Micron Size 27","Counts/Channel 27","Micron Size 28","Counts/Channel 28","Micron Size 29","Counts/Channel 29","Micron Size 30","Counts/Channel 30","Micron Size 31","Counts/Channel 31"
"05/10/08","07:00:00",25213.000,"cc",28280.703,6,0.100,21621.000,0.200,3378.000,0.300,193.000,0.500,21.000,1.000,0,5.000,0
"05/10/08","07:00:06",13923.000,"cc",28354.361,6,0.100,11901.000,0.200,1884.000,0.300,114.000,0.500,22.000,1.000,2.000,5.000,0
"05/10/08","07:00:12",10926.000,"cc",28294.297,6,0.100,9284.000,0.200,1541.000,0.300,89.000,0.500,11.000,1.000,1.000,5.000,0
"05/10/08","07:00:18",19034.000,"cc",28333.486,6,0.100,16397.000,0.200,2467.000,0.300,151.000,0.500,18.000,1.000,1.000,5.000,0
"05/10/08","07:00:24",19572.000,"cc",28334.691,6,0.100,16867.000,0.200,2544.000,0.300,141.000,0.500,17.000,1.000,3.000,5.000,0
"05/10/08","07:00:30",26425.000,"cc",28329.043,6,0.100,22608.000,0.200,3609.000,0.300,180.000,0.500,27.000,1.000,1.000,5.000,0
"05/10/08","07:00:36",20711.000,"cc",28271.191,6,0.100,17785.000,0.200,2749.000,0.300,149.000,0.500,27.000,1.000,1.000,5.000,0
"05/10/08","07:00:42",16437.000,"cc",28294.207,6,0.100,14040.000,0.200,2213.000,0.300,161.000,0.500,21.000,1.000,2.000,5.000,0
"05/10/08","07:00:48",16446.000,"cc",28323.090,6,0.100,14093.000,0.200,2201.000,0.300,131.000,0.500,20.000,1.000,1.000,5.000,0
"05/10/08","07:00:54",15939.000,"cc",28324.209,6,0.100,13570.000,0.200,2181.000,0.300,155.000,0.500,32.000,1.000,1.000,5.000,0
"05/10/08","07:01:00",20304.000,"cc",28300.332,6,0.100,17372.000,0.200,2734.000,0.300,174.000,0.500,23.000,1.000,1.000,5.000,0
"05/10/08","07:01:06",18914.000,"cc",28336.113,6,0.100,16220.000,0.200,2507.000,0.300,170.000,0.500,16.000,1.000,1.000,5.000,0
"05/10/08","07:01:12",16145.000,"cc",28343.824,6,0.100,13865.000,0.200,2097.000,0.300,160.000,0.500,23.000,1.000,0,5.000,0
"05/10/08","07:01:18",19197.000,"cc",28328.748,6,0.100,16347.000,0.200,2675.000,0.300,146.000,0.500,28.000,1.000,1.000,5.000,0
"05/10/08","07:01:24",16062.000,"cc",28279.150,6,0.100,13801.000,0.200,2110.000,0.300,137.000,0.500,13.000,1.000,1.000,5.000,0
"05/10/08","07:01:30",18670.000,"cc",28362.885,6,0.100,16006.000,0.200,2487.000,0.300,160.000,0.500,16.000,1.000,1.000,5.000,0
"05/10/08","07:01:36",14036.000,"cc",28314.449,6,0.100,11936.000,0.200,1945.000,0.300,137.000,0.500,18.000,1.000,0,5.000,0
"05/10/08","07:01:42",13895.000,"cc",28323.223,6,0.100,11864.000,0.200,1901.000,0.300,116.000,0.500,13.000,1.000,1.000,5.000,0
"05/10/08","07:01:48",21015.000,"cc",28337.051,6,0.100,18014.000,0.200,2800.000,0.300,172.000,0.500,26.000,1.000,3.000,5.000,0
"05/10/08","07:01:54",10911.000,"cc",28237.947,6,0.100,9224.000,0.200,1537.000,0.300,122.000,0.500,27.000,1.000,1.000,5.000,0
"05/10/08","07:02:00",20191.000,"cc",28274.004,6,0.100,17247.000,0.200,2759.000,0.300,151.000,0.500,30.000,1.000,4.000,5.000,0
"05/10/08","07:02:06",12034.000,"cc",28325.762,6,0.100,10204.000,0.200,1701.000,0.300,103.000,0.500,25.000,1.000,1.000,5.000,0
"05/10/08","07:02:12",11888.000,"cc",28307.078,6,0.100,10091.000,0.200,1655.000,0.300,124.000,0.500,17.000,1.000,1.000,5.000,0
"05/10/08","07:02:18",9785.000,"cc",28288.666,6,0.100,8256.000,0.200,1393.000,0.300,118.000,0.500,15.000,1.000,3.000,5.000,0
"05/10/08","07:02:24",10928.000,"cc",28373.082,6,0.100,9237.000,0.200,1551.000,0.300,113.000,0.500,26.000,1.000,1.000,5.000,0
"05/10/08","07:02:30",11259.000,"cc",28332.676,6,0.100,9545.000,0.200,1585.000,0.300,111.000,0.500,15.000,1.000,3.000,5.000,0
"05/10/08","07:02:36",11178.000,"cc",28313.779,6,0.100,9461.000,0.200,1591.000,0.300,117.000,0.500,8.000,1.000,1.000,5.000,0
"05/10/08","07:02:42",22227.000,"cc",28336.879,6,0.100,19182.000,0.200,2877.000,0.300,143.000,0.500,25.000,1.000,0,5.000,0
"05/10/08","07:02:48",34540.000,"cc",28331.016,6,0.100,29696.000,0.200,4609.000,0.300,209.000,0.500,24.000,1.000,2.000,5.000,0
"05/10/08","07:02:54",21556.000,"cc",28324.693,6,0.100,18489.000,0.200,2884.000,0.300,164.000,0.500,17.000,1.000,2.000,5.000,0
"05/10/08","07:03:00",17323.000,"cc",28319.219,6,0.100,14855.000,0.200,2313.000,0.300,132.000,0.500,23.000,1.000,0,5.000,0
"05/10/08","07:03:06",20872.000,"cc",28364.559,6,0.100,17765.000,0.200,2899.000,0.300,191.000,0.500,17.000,1.000,0,5.000,0
"05/10/08","07:03:12",20547.000,"cc",28299.285,6,0.100,17612.000,0.200,2744.000,0.300,166.000,0.500,23.000,1.000,2.000,5.000,0
"05/10/08","07:03:18",21777.000,"cc",28324.168,6,0.100,18764.000,0.200,2817.000,0.300,178.000,0.500,16.000,1.000,2.000,5.000,0
"05/10/08","07:03:24",18059.000,"cc",28311.033,6,0.100,15466.000,0.200,2441.000,0.300,122.000,0.500,29.000,1.000,1.000,5.000,0
"05/10/08","07:03:30",22579.000,"cc",28302.283,6,0.100,19380.000,0.200,3020.000,0.300,159.000,0.500,20.000,1.000,0,5.000,0
"05/10/08","07:03:36",22590.000,"cc",28295.047,6,0.100,19440.000,0.200,2979.000,0.300,142.000,0.500,28.000,1.000,1.000,5.000,0
"05/10/08","07:03:42",22204.000,"cc",28314.988,6,0.100,19118.000,0.200,2915.000,0.300,149.000,0.500,19.000,1.000,3.000,5.000,0
"05/10/08","07:03:48",17717.000,"cc",28348.729,6,0.100,15248.000,0.200,2323.000,0.300,130.000,0.500,16.000,1.000,0,5.000,0
"05/10/08","07:03:54",18821.000,"cc",28378.453,6,0.100,16192.000,0.200,2461.000,0.300,140.000,0.500,25.000,1.000,3.000,5.000,0
"05/10/08","07:04:00",23267.000,"cc",28295.738,6,0.100,20083.000,0.200,2993.000,0.300,165.000,0.500,23.000,1.000,3.000,5.000,0
"05/10/08","07:04:06",22240.000,"cc",28200.586,6,0.100,19195.000,0.200,2888.000,0.300,133.000,0.500,22.000,1.000,2.000,5.000,0
"05/10/08","07:04:12",21421.000,"cc",28341.949,6,0.100,18513.000,0.200,2739.000,0.300,151.000,0.500,18.000,1.000,0,5.000,0
"05/10/08","07:04:18",18938.000,"cc",28340.477,6,0.100,16355.000,0.200,2443.000,0.300,126.000,0.500,14.000,1.000,0,5.000,0
"05/10/08","07:04:24",25449.000,"cc",28324.369,6,0.100,21929.000,0.200,3334.000,0.300,169.000,0.500,16.000,1.000,1.000,5.000,0
"05/10/08","07:04:30",14865.000,"cc",28266.518,6,0.100,12832.000,0.200,1899.000,0.300,103.000,0.500,29.000,1.000,2.000,5.000,0
"05/10/08","07:04:36",17746.000,"cc",28275.410,6,0.100,15336.000,0.200,2265.000,0.300,123.000,0.500,19.000,1.000,3.000,5.000,0
"05/10/08","07:04:42",21435.000,"cc",28237.732,6,0.100,18574.000,0.200,2718.000,0.300,132.000,0.500,11.000,1.000,0,5.000,0
"05/10/08","07:04:48",22538.000,"cc",28422.643,6,0.100,19559.000,0.200,2792.000,0.300,166.000,0.500,18.000,1.000,3.000,5.000,0
"05/10/08","07:04:54",17024.000,"cc",28360.299,6,0.100,14724.000,0.200,2166.000,0.300,126.000,0.500,8.000,1.000,0,5.000,0
"05/10/08","07:05:00",13855.000,"cc",28213.131,6,0.100,11873.000,0.200,1837.000,0.300,113.000,0.500,30.000,1.000,2.000,5.000,0
"05/10/08","07:05:06",23353.000,"cc",28406.785,6,0.100,20216.000,0.200,2974.000,0.300,142.000,0.500,18.000,1.000,3.000,5.000,0
"05/10/08","07:05:12",16284.000,"cc",28341.764,6,0.100,13998.000,0.200,2140.000,0.300,130.000,0.500,15.000,1.000,1.000,5.000,0
"05/10/08","07:05:18",12741.000,"cc",28336.772,6,0.100,10902.000,0.200,1717.000,0.300,99.000,0.500,23.000,1.000,0,5.000,0
"05/10/08","07:05:24",10745.000,"cc",28239.340,6,0.100,9178.000,0.200,1455.000,0.300,95.000,0.500,14.000,1.000,3.000,5.000,0
"05/10/08","07:05:30",8768.000,"cc",28302.748,6,0.100,7394.000,0.200,1270.000,0.300,86.000,0.500,17.000,1.000,1.000,5.000,0
"05/10/08","07:05:36",10095.000,"cc",28353.229,6,0.100,8638.000,0.200,1328.000,0.300,103.000,0.500,21.000,1.000,5.000,5.000,0
"05/10/08","07:05:42",13991.000,"cc",28332.555,6,0.100,12034.000,0.200,1833.000,0.300,99.000,0.500,25.000,1.000,0,5.000,0
"05/10/08","07:05:48",14655.000,"cc",28357.604,6,0.100,12544.000,0.200,1964.000,0.300,122.000,0.500,21.000,1.000,4.000,5.000,0
"05/10/08","07:05:54",7999.000,"cc",28254.283,6,0.100,6843.000,0.200,1070.000,0.300,66.000,0.500,18.000,1.000,2.000,5.000,0
"05/10/08","07:06:00",19266.000,"cc",28311.762,6,0.100,16663.000,0.200,2433.000,0.300,151.000,0.500,16.000,1.000,3.000,5.000,0
"05/10/08","07:06:06",11283.000,"cc",28282.904,6,0.100,9619.000,0.200,1533.000,0.300,110.000,0.500,19.000,1.000,2.000,5.000,0
"05/10/08","07:06:12",11583.000,"cc",28308.168,6,0.100,9821.000,0.200,1635.000,0.300,109.000,0.500,17.000,1.000,1.000,5.000,0
"05/10/08","07:06:18",9594.000,"cc",28319.691,6,0.100,8179.000,0.200,1287.000,0.300,108.000,0.500,20.000,1.000,0,5.000,0
"05/10/08","07:06:24",12731.000,"cc",28295.244,6,0.100,10954.000,0.200,1654.000,0.300,102.000,0.500,19.000,1.000,2.000,5.000,0
"05/10/08","07:06:30",16535.000,"cc",28329.053,6,0.100,14238.000,0.200,2160.000,0.300,123.000,0.500,13.000,1.000,1.000,5.000,0
"05/10/08","07:06:36",14077.000,"cc",28357.865,6,0.100,12140.000,0.200,1813.000,0.300,113.000,0.500,11.000,1.000,0,5.000,0
"05/10/08","07:06:42",14132.000,"cc",28309.502,6,0.100,12183.000,0.200,1843.000,0.300,87.000,0.500,17.000,1.000,2.000,5.000,0
"05/10/08","07:06:48",17258.000,"cc",28277.266,6,0.100,14856.000,0.200,2239.000,0.300,140.000,0.500,19.000,1.000,4.000,5.000,0
"05/10/08","07:06:54",10799.000,"cc",28294.684,6,0.100,9261.000,0.200,1386.000,0.300,122.000,0.500,30.000,1.000,0,5.000,0
"05/10/08","07:07:00",11967.000,"cc",28303.934,6,0.100,10192.000,0.200,1642.000,0.300,110.000,0.500,22.000,1.000,1.000,5.000,0
"05/10/08","07:07:06",14361.000,"cc",28248.424,6,0.100,12330.000,0.200,1887.000,0.300,127.000,0.500,15.000,1.000,2.000,5.000,0
"05/10/08","07:07:12",15189.000,"cc",28292.059,6,0.100,13017.000,0.200,2016.000,0.300,129.000,0.500,22.000,1.000,5.000,5.000,0
"05/10/08","07:07:18",21089.000,"cc",28396.959,6,0.100,18162.000,0.200,2776.000,0.300,125.000,0.500,21.000,1.000,5.000,5.000,0
"05/10/08","07:07:24",31940.000,"cc",28369.330,6,0.100,27632.000,0.200,4070.000,0.300,210.000,0.500,25.000,1.000,3.000,5.000,0
"05/10/08","07:07:30",27138.000,"cc",28303.432,6,0.100,23584.000,0.200,3365.000,0.300,166.000,0.500,22.000,1.000,1.000,5.000,0
"05/10/08","07:07:36",25200.000,"cc",28296.598,6,0.100,21793.000,0.200,3194.000,0.300,181.000,0.500,30.000,1.000,2.000,5.000,0
"05/10/08","07:07:42",21496.000,"cc",28331.068,6,0.100,18507.000,0.200,2816.000,0.300,148.000,0.500,23.000,1.000,2.000,5.000,0
"05/10/08","07:07:48",24055.000,"cc",28311.996,6,0.100,20814.000,0.200,3087.000,0.300,129.000,0.500,25.000,1.000,0,5.000,0
"05/10/08","07:07:54",19518.000,"cc",28313.590,6,0.100,16907.000,0.200,2448.000,0.300,135.000,0.500,25.000,1.000,3.000,5.000,0
"05/10/08","07:08:00",25362.000,"cc",28349.682,6,0.100,21861.000,0.200,3326.000,0.300,162.000,0.500,12.000,1.000,1.000,5.000,0
"05/10/08","07:08:06",28284.000,"cc",28363.867,6,0.100,24498.000,0.200,3570.000,0.300,190.000,0.500,25.000,1.000,1.000,5.000,0
"05/10/08","07:08:12",15553.000,"cc",28319.697,6,0.100,13325.000,0.200,2086.000,0.300,115.000,0.500,27.000,1.000,0,5.000,0
"05/10/08","07:08:18",16077.000,"cc",28278.561,6,0.100,13808.000,0.200,2141.000,0.300,116.000,0.500,10.000,1.000,2.000,5.000,0
"05/10/08","07:08:24",13373.000,"cc",28304.264,6,0.100,11433.000,0.200,1810.000,0.300,109.000,0.500,18.000,1.000,3.000,5.000,0
"05/10/08","07:08:30",12295.000,"cc",28325.576,6,0.100,10556.000,0.200,1613.000,0.300,106.000,0.500,18.000,1.000,2.000,5.000,0
"05/10/08","07:08:36",14525.000,"cc",28323.367,6,0.100,12440.000,0.200,1948.000,0.300,112.000,0.500,23.000,1.000,2.000,5.000,0
"05/10/08","07:08:42",10983.000,"cc",28287.264,6,0.100,9356.000,0.200,1498.000,0.300,109.000,0.500,18.000,1.000,2.000,5.000,0
"05/10/08","07:08:48",19365.000,"cc",28306.578,6,0.100,16638.000,0.200,2565.000,0.300,143.000,0.500,17.000,1.000,2.000,5.000,0
"05/10/08","07:08:54",18634.000,"cc",28338.336,6,0.100,16052.000,0.200,2431.000,0.300,130.000,0.500,21.000,1.000,0,5.000,0
"05/10/08","07:09:00",20176.000,"cc",28401.383,6,0.100,17336.000,0.200,2653.000,0.300,158.000,0.500,23.000,1.000,6.000,5.000,0
"05/10/08","07:09:06",13068.000,"cc",28303.160,6,0.100,11120.000,0.200,1799.000,0.300,121.000,0.500,26.000,1.000,2.000,5.000,0
"05/10/08","07:09:12",10596.000,"cc",28303.065,6,0.100,9006.000,0.200,1445.000,0.300,129.000,0.500,15.000,1.000,1.000,5.000,0
"05/10/08","07:09:18",14757.000,"cc",28316.590,6,0.100,12611.000,0.200,2008.000,0.300,119.000,0.500,17.000,1.000,2.000,5.000,0
"05/10/08","07:09:24",19783.000,"cc",28368.135,6,0.100,16965.000,0.200,2639.000,0.300,151.000,0.500,26.000,1.000,2.000,5.000,0
"05/10/08","07:09:30",21123.000,"cc",28312.135,6,0.100,18162.000,0.200,2791.000,0.300,149.000,0.500,21.000,1.000,0,5.000,0
"05/10/08","07:09:36",23801.000,"cc",28270.039,6,0.100,20539.000,0.200,3082.000,0.300,158.000,0.500,21.000,1.000,1.000,5.000,0
"05/10/08","07:09:42",16486.000,"cc",28315.729,6,0.100,14086.000,0.200,2247.000,0.300,135.000,0.500,13.000,1.000,5.000,5.000,0
"05/10/08","07:09:48",14246.000,"cc",28275.963,6,0.100,12144.000,0.200,1962.000,0.300,124.000,0.500,14.000,1.000,2.000,5.000,0
"05/10/08","07:09:54",11292.000,"cc",28359.277,6,0.100,9525.000,0.200,1626.000,0.300,112.000,0.500,24.000,1.000,5.000,5.000,0
"05/10/08","07:10:00",15463.000,"cc",28400.523,6,0.100,13148.000,0.200,2165.000,0.300,127.000,0.500,20.000,1.000,3.000,5.000,0
"05/10/08","07:10:06",17306.000,"cc",28314.393,6,0.100,14711.000,0.200,2417.000,0.300,153.000,0.500,22.000,1.000,3.000,5.000,0
"05/10/08","07:10:12",16822.000,"cc",28247.816,6,0.100,14299.000,0.200,2355.000,0.300,149.000,0.500,18.000,1.000,1.000,5.000,0
"05/10/08","07:10:18",24572.000,"cc",28342.820,6,0.100,20944.000,0.200,3404.000,0.300,203.000,0.500,20.000,1.000,1.000,5.000,0
"05/10/08","07:10:24",18146.000,"cc",28342.080,6,0.100,15526.000,0.200,2441.000,0.300,157.000,0.500,20.000,1.000,2.000,5.000,0
"05/10/08","07:10:30",21642.000,"cc",28273.385,6,0.100,18469.000,0.200,2964.000,0.300,178.000,0.500,25.000,1.000,6.000,5.000,0
"05/10/08","07:10:36",19845.000,"cc",28297.137,6,0.100,16914.000,0.200,2734.000,0.300,174.000,0.500,20.000,1.000,3.000,5.000,0
"05/10/08","07:10:42",19796.000,"cc",28285.176,6,0.100,16822.000,0.200,2784.000,0.300,162.000,0.500,28.000,1.000,0,5.000,0
"05/10/08","07:10:48",22985.000,"cc",28294.092,6,0.100,19611.000,0.200,3165.000,0.300,183.000,0.500,24.000,1.000,2.000,5.000,0
"05/10/08","07:10:54",33993.000,"cc",28277.803,6,0.100,28915.000,0.200,4765.000,0.300,301.000,0.500,11.000,1.000,1.000,5.000,0
"05/10/08","07:11:00",25780.000,"cc",28340.541,6,0.100,21939.000,0.200,3595.000,0.300,220.000,0.500,26.000,1.000,0,5.000,0
"05/10/08","07:11:06",21879.000,"cc",28315.180,6,0.100,18727.000,0.200,2944.000,0.300,181.000,0.500,24.000,1.000,3.000,5.000,0
"05/10/08","07:11:12",20506.000,"cc",28413.252,6,0.100,17493.000,0.200,2819.000,0.300,175.000,0.500,16.000,1.000,3.000,5.000,0
"05/10/08","07:11:18",15862.000,"cc",28302.188,6,0.100,13466.000,0.200,2215.000,0.300,166.000,0.500,15.000,1.000,0,5.000,0
"05/10/08","07:11:24",19378.000,"cc",28304.754,6,0.100,16530.000,0.200,2687.000,0.300,136.000,0.500,24.000,1.000,1.000,5.000,0
"05/10/08","07:11:30",24288.000,"cc",28314.578,6,0.100,20658.000,0.200,3428.000,0.300,180.000,0.500,21.000,1.000,1.000,5.000,0
"05/10/08","07:11:36",18035.000,"cc",28320.846,6,0.100,15297.000,0.200,2550.000,0.300,163.000,0.500,21.000,1.000,4.000,5.000,0
"05/10/08","07:11:42",13399.000,"cc",28323.219,6,0.100,11236.000,0.200,2004.000,0.300,141.000,0.500,17.000,1.000,1.000,5.000,0
"05/10/08","07:11:48",10194.000,"cc",28302.871,6,0.100,8557.000,0.200,1500.000,0.300,119.000,0.500,18.000,1.000,0,5.000,0
"05/10/08","07:11:54",16861.000,"cc",28317.273,6,0.100,14294.000,0.200,2392.000,0.300,158.000,0.500,15.000,1.000,2.000,5.000,0
"05/10/08","07:12:00",11344.000,"cc",28289.898,6,0.100,9484.000,0.200,1728.000,0.300,116.000,0.500,14.000,1.000,2.000,5.000,0
"05/10/08","07:12:06",10499.000,"cc",28325.416,6,0.100,8766.000,0.200,1599.000,0.300,113.000,0.500,20.000,1.000,1.000,5.000,0
"05/10/08","07:12:12",13092.000,"cc",28395.951,6,0.100,11013.000,0.200,1916.000,0.300,149.000,0.500,12.000,1.000,2.000,5.000,0
"05/10/08","07:12:18",15730.000,"cc",28312.488,6,0.100,13206.000,0.200,2370.000,0.300,140.000,0.500,14.000,1.000,0,5.000,0
"05/10/08","07:12:24",21384.000,"cc",28291.900,6,0.100,18187.000,0.200,2983.000,0.300,193.000,0.500,20.000,1.000,1.000,5.000,0
"05/10/08","07:12:30",19789.000,"cc",28290.984,6,0.100,16669.000,0.200,2884.000,0.300,222.000,0.500,12.000,1.000,2.000,5.000,0
"05/10/08","07:12:36",21180.000,"cc",28338.934,6,0.100,17966.000,0.200,2974.000,0.300,213.000,0.500,27.000,1.000,0,5.000,0
"05/10/08","07:12:42",13587.000,"cc",28353.346,6,0.100,11400.000,0.200,2033.000,0.300,130.000,0.500,21.000,1.000,3.000,5.000,0
"05/10/08","07:12:48",20098.000,"cc",28292.680,6,0.100,17021.000,0.200,2839.000,0.300,211.000,0.500,26.000,1.000,1.000,5.000,0
"05/10/08","07:12:54",22316.000,"cc",28353.545,6,0.100,18931.000,0.200,3160.000,0.300,199.000,0.500,24.000,1.000,2.000,5.000,0
"05/10/08","07:13:00",18174.000,"cc",28305.440,6,0.100,15358.000,0.200,2623.000,0.300,174.000,0.500,16.000,1.000,3.000,5.000,0
"05/10/08","07:13:06",15166.000,"cc",28283.959,6,0.100,12766.000,0.200,2246.000,0.300,134.000,0.500,16.000,1.000,4.000,5.000,0
"05/10/08","07:13:12",17142.000,"cc",28323.356,6,0.100,14501.000,0.200,2428.000,0.300,200.000,0.500,11.000,1.000,2.000,5.000,0
"05/10/08","07:13:18",11744.000,"cc",28278.643,6,0.100,9858.000,0.200,1728.000,0.300,134.000,0.500,21.000,1.000,3.000,5.000,0
"05/10/08","07:13:24",11645.000,"cc",28291.201,6,0.100,9716.000,0.200,1770.000,0.300,142.000,0.500,17.000,1.000,0,5.000,0
"05/10/08","07:13:30",13669.000,"cc",28304.772,6,0.100,11441.000,0.200,2045.000,0.300,161.000,0.500,18.000,1.000,4.000,5.000,0
"05/10/08","07:13:36",15143.000,"cc",28349.574,6,0.100,12687.000,0.200,2268.000,0.300,167.000,0.500,18.000,1.000,3.000,5.000,0
"05/10/08","07:13:42",18301.000,"cc",28368.387,6,0.100,15366.000,0.200,2701.000,0.300,212.000,0.500,22.000,1.000,0,5.000,0
"05/10/08","07:13:48",15593.000,"cc",28331.150,6,0.100,13044.000,0.200,2339.000,0.300,187.000,0.500,23.000,1.000,0,5.000,0
"05/10/08","07:13:54",14084.000,"cc",28318.256,6,0.100,11843.000,0.200,2068.000,0.300,159.000,0.500,13.000,1.000,1.000,5.000,0
"05/10/08","07:14:00",22239.000,"cc",28287.154,6,0.100,18769.000,0.200,3183.000,0.300,254.000,0.500,33.000,1.000,0,5.000,0
"05/10/08","07:14:06",15282.000,"cc",28339.766,6,0.100,12794.000,0.200,2298.000,0.300,163.000,0.500,27.000,1.000,0,5.000,0
"05/10/08","07:14:12",20196.000,"cc",28301.727,6,0.100,16986.000,0.200,2972.000,0.300,215.000,0.500,23.000,1.000,0,5.000,0
"05/10/08","07:14:18",20299.000,"cc",28347.510,6,0.100,17137.000,0.200,2947.000,0.300,193.000,0.500,21.000,1.000,1.000,5.000,0
"05/10/08","07:14:24",19996.000,"cc",28249.932,6,0.100,16906.000,0.200,2847.000,0.300,226.000,0.500,16.000,1.000,1.000,5.000,0
"05/10/08","07:14:30",19739.000,"cc",28354.818,6,0.100,16685.000,0.200,2822.000,0.300,211.000,0.500,21.000,1.000,0,5.000,0
"05/10/08","07:14:36",18424.000,"cc",28346.445,6,0.100,15511.000,0.200,2691.000,0.300,199.000,0.500,23.000,1.000,0,5.000,0
"05/10/08","07:14:42",22183.000,"cc",28310.566,6,0.100,18728.000,0.200,3196.000,0.300,241.000,0.500,16.000,1.000,2.000,5.000,0
"05/10/08","07:14:48",19961.000,"cc",28277.723,6,0.100,16839.000,0.200,2916.000,0.300,188.000,0.500,17.000,1.000,1.000,5.000,0
"05/10/08","07:14:54",21229.000,"cc",28315.359,6,0.100,17891.000,0.200,3102.000,0.300,214.000,0.500,22.000,1.000,0,5.000,0
"05/10/08","07:15:00",13777.000,"cc",28328.867,6,0.100,11577.000,0.200,2042.000,0.300,143.000,0.500,13.000,1.000,2.000,5.000,0
"05/10/08","07:15:06",21487.000,"cc",28305.717,6,0.100,18143.000,0.200,3126.000,0.300,196.000,0.500,21.000,1.000,1.000,5.000,0
"05/10/08","07:15:12",33154.000,"cc",28297.838,6,0.100,28173.000,0.200,4631.000,0.300,323.000,0.500,23.000,1.000,4.000,5.000,0
"05/10/08","07:15:18",19190.000,"cc",28296.645,6,0.100,16069.000,0.200,2902.000,0.300,197.000,0.500,21.000,1.000,1.000,5.000,0
"05/10/08","07:15:24",17492.000,"cc",28327.672,6,0.100,14620.000,0.200,2660.000,0.300,187.000,0.500,22.000,1.000,3.000,5.000,0
"05/10/08","07:15:30",22069.000,"cc",28344.121,6,0.100,18571.000,0.200,3217.000,0.300,257.000,0.500,22.000,1.000,2.000,5.000,0
"05/10/08","07:15:36",17792.000,"cc",28359.561,6,0.100,14926.000,0.200,2645.000,0.300,209.000,0.500,7.000,1.000,5.000,5.000,0
"05/10/08","07:15:42",15853.000,"cc",28330.680,6,0.100,13248.000,0.200,2412.000,0.300,172.000,0.500,19.000,1.000,2.000,5.000,0
"05/10/08","07:15:48",10514.000,"cc",28246.463,6,0.100,8687.000,0.200,1655.000,0.300,142.000,0.500,28.000,1.000,2.000,5.000,0
"05/10/08","07:15:54",8905.000,"cc",28302.221,6,0.100,7375.000,0.200,1392.000,0.300,122.000,0.500,13.000,1.000,3.000,5.000,0
"05/10/08","07:16:00",9749.000,"cc",28314.285,6,0.100,8023.000,0.200,1561.000,0.300,148.000,0.500,15.000,1.000,2.000,5.000,0
"05/10/08","07:16:06",8035.000,"cc",28373.418,6,0.100,6605.000,0.200,1282.000,0.300,132.000,0.500,15.000,1.000,1.000,5.000,0
"05/10/08","07:16:12",7534.000,"cc",28259.234,6,0.100,6201.000,0.200,1196.000,0.300,114.000,0.500,22.000,1.000,1.000,5.000,0
"05/10/08","07:16:18",9032.000,"cc",28267.758,6,0.100,7419.000,0.200,1467.000,0.300,131.000,0.500,14.000,1.000,1.000,5.000,0
"05/10/08","07:16:24",5837.000,"cc",28356.561,6,0.100,4702.000,0.200,1019.000,0.300,98.000,0.500,17.000,1.000,1.000,5.000,0
"05/10/08","07:16:30",4258.000,"cc",28287.963,6,0.100,3384.000,0.200,785.000,0.300,77.000,0.500,12.000,1.000,0,5.000,0
"05/10/08","07:16:36",7881.000,"cc",28443.795,6,0.100,6432.000,0.200,1309.000,0.300,116.000,0.500,23.000,1.000,1.000,5.000,0
"05/10/08","07:16:42",10344.000,"cc",28309.566,6,0.100,8550.000,0.200,1602.000,0.300,165.000,0.500,26.000,1.000,1.000,5.000,0
"05/10/08","07:16:48",12124.000,"cc",28331.152,6,0.100,10074.000,0.200,1856.000,0.300,166.000,0.500,27.000,1.000,1.000,5.000,0
"05/10/08","07:16:54",10267.000,"cc",28285.127,6,0.100,8539.000,0.200,1578.000,0.300,133.000,0.500,14.000,1.000,3.000,5.000,0
"05/10/08","07:17:00",9069.000,"cc",28310.816,6,0.100,7453.000,0.200,1466.000,0.300,131.000,0.500,16.000,1.000,3.000,5.000,0
"05/10/08","07:17:06",7174.000,"cc",28297.908,6,0.100,5849.000,0.200,1221.000,0.300,94.000,0.500,10.000,1.000,0,5.000,0
"05/10/08","07:17:12",9752.000,"cc",28319.637,6,0.100,8031.000,0.200,1578.000,0.300,129.000,0.500,13.000,1.000,1.000,5.000,0
"05/10/08","07:17:18",9500.000,"cc",28253.451,6,0.100,7867.000,0.200,1481.000,0.300,130.000,0.500,18.000,1.000,4.000,5.000,0
"05/10/08","07:17:24",6478.000,"cc",28367.818,6,0.100,5354.000,0.200,1010.000,0.300,91.000,0.500,22.000,1.000,1.000,5.000,0
"05/10/08","07:17:30",8200.000,"cc",28304.775,6,0.100,6780.000,0.200,1279.000,0.300,115.000,0.500,24.000,1.000,2.000,5.000,0
"05/10/08","07:17:36",7091.000,"cc",28315.750,6,0.100,5843.000,0.200,1133.000,0.300,96.000,0.500,18.000,1.000,1.000,5.000,0
"05/10/08","07:17:42",10223.000,"cc",28356.746,6,0.100,8530.000,0.200,1530.000,0.300,145.000,0.500,17.000,1.000,1.000,5.000,0
"05/10/08","07:17:48",16865.000,"cc",28298.668,6,0.100,14266.000,0.200,2374.000,0.300,201.000,0.500,23.000,1.000,1.000,5.000,0